Probability
0 0 0 0 0 0 0 0 0 0 0 0 0 0 0 0 0 0 0 0 0 0 0 0 0 0 0 0 0 0 0 0 0 0 0 0 0 0 0 0 0 0 0 0 0 0 0 0 0
0 0 0 0 0 0 0 0 0 0 0 0 0 0 0 0 0 0 0 0 0 0 0 0 0 0 0 0 0 0 0 0 0 0 0 0 0 0 0 0 0 0 0 0 0 0 0 0 0
0 0 0 0 0 0 0 0 0 0 0 0 0 0 0 0 0 0 0 0 0 0 0 0 0 0 0 0 0 0 0 0 0 0 0 0 0 0 0 0 0 0 0 0 0 0 0 0 0
0 0 0 0 0 0 0 0 0 0 0 0 0 0 0 0 0 0 0 0 0 0 0 0 0 0 0 0 0 0 0 0 0 0 0 0 0 0 0 0 0 0 0 0 0 0 0 0 0
0 0 0 0 0 0 0 0 0 0 0 0 0 0 0 0 0 0 0 0 0 0 0 0 0 0 0 0 0 0 0 0 0 0 0 0 0 0 0 0 0 0 0 0 0 0 0 0 0
0 0 0 0 0 0 0 0 0 0 0 0 0 0 0 0 0 0 0 0 0 0 0 0 0 0 0 0 0 0 0 0 0 0 0 0 0 0 0 0 0 0 0 0 0 0 0 0 0
0 0 0 0 0 0 0 0 0 0 0 0 0 0 0 0 0 0 0 0 0 0 0 0 0 0 0 0 0 0 0 0 0 0 0 0 0 0 0 0 0 0 0 0 0 0 0 0 0
0 0 0 0 0 0 0 0 0 0 0 0 0 0 0 0 0 0 0 0 0 0 0 0 0 0 0 0 0 0 0 0 0 0 0 0 0 0 0 0 0 0 0 0 0 0 0 0 0
0 0 0 0 0 0 0 0 0 0 0 0 0 0 0 0 0 0 0 0 0 0 0 0 0 0 0 0 0 0 0 0 0 0 0 0 0 0 0 0 0 0 0 0 0 0 0 0 0
0 0 0 0 0 0 0 0 0 0 0 0 0 0 0 0 0 0 0 0 0 0 0 0 0 0 0 0 0 0 0 0 0 0 0 0 0 0 0 0 0 0 0 0 0 0 0 0 0
0 0 0 0 0 0 0 0 0 0 0 0 0 0 0 0 0 0 0 0 0 0 0 0 0 0 0 0 0 0 0 0 0 0 0 0 0 0 0 0 0 0 0 0 0 0 0 0 0
0 0 0 0 0 0 0 0 0 0 0 0 0 0 0 0 0 0 0 0 0 0 0 0 0 0 0 0 0 0 0 0 0 0 0 0 0 0 0 0 0 0 0 0 0 0 0 0 0
0 0 0 0 0 0 0 0 0 0 0 0 0 0 0 0 0 0 0 0 0 0 0 0 0 0 0 0 0 0 0 0 0 0 0 0 0 0 0 0 0 0 0 0 0 0 0 0 0
0 0 0 0 0 0 0 0 0 0 0 0 0 0 0 0 0 0 0 0 0 0 0 0 0 0 0 0 0 0 0 0 0 0 0 0 0 0 0 0 0 0 0 0 0 0 0 0 0
0 0 0 0 0 0 0 0 0 0 0 0 0 0 0 0 0 0 0 0 0 0 0 0 0 0 0 0 0 0 0 0 0 0 0 0 0 0 0 0 0 0 0 0 0 0 0 0 0
0 0 0 0 0 0 0 0 0 0 0 0 0 0 0 0 0 0 0 0 0 0 0 0 0 0 0 0 0 0 0 0 0 0 0 0 0 0 0 0 0 0 0 0 0 0 0 0 0
0 0 0 0 0 0 0 0 0 0 0 0 0 0 0 0 0 0 0 0 0 0 0 0 0 0 0 0 0 0 0 1 1 1 1 1 0 0 0 0 0 0 0 0 0 0 0 0 0
0 0 0 0 0 0 0 0 0 0 0 0 0 0 0 0 0 0 0 0 0 0 0 0 0 0 0 0 0 1 2 2 3 3 2 2 1 0 0 0 0 0 0 0 0 0 0 0 0
0 0 0 0 0 0 0 0 0 0 0 0 0 0 0 0 0 0 0 0 0 0 0 0 0 0 0 0 1 3 3 3 4 4 4 3 2 1 0 0 0 0 0 0 0 0 0 0 0
0 0 0 0 0 0 0 0 0 0 0 0 0 0 0 0 0 0 0 0 0 0 0 0 0 0 0 0 2 2 2 2 3 5 6 5 4 2 1 0 0 0 0 0 0 0 0 0 0
0 0 0 0 0 0 0 0 0 0 0 0 0 0 0 0 0 0 0 0 0 0 0 0 0 0 0 0 1 1 1 1 3 5 6 6 5 3 2 1 0 0 0 0 0 0 0 0 0
0 0 0 0 0 0 0 0 0 0 0 0 0 0 0 0 0 0 0 0 0 0 0 0 0 0 0 0 0 0 1 1 2 3 4 5 4 3 2 1 0 0 0 0 0 0 0 0 0
0 0 0 0 0 0 0 0 0 0 0 0 0 0 0 0 0 0 0 0 0 0 0 0 0 0 0 0 0 0 0 1 1 1 1 2 2 2 2 2 1 0 0 0 0 0 0 0 0
0 0 0 0 0 0 0 0 0 0 0 0 0 0 0 0 0 0 0 0 0 0 0 0 0 0 0 0 0 0 0 0 0 0 0 1 1 1 1 1 1 0 0 0 0 0 0 0 0
0 0 0 0 0 0 0 0 0 0 0 0 0 0 0 0 0 0 0 0 0 0 0 0 0 0 0 0 0 0 0 0 0 0 0 0 0 0 0 0 0 0 0 0 0 0 0 0 0
0 0 0 0 0 0 0 0 0 0 0 0 0 0 0 0 0 0 0 0 0 0 0 0 0 0 0 0 0 0 0 0 0 0 0 0 0 0 0 0 0 0 0 0 0 0 0 0 0
0 0 0 0 0 0 0 0 0 0 0 0 0 0 0 0 0 0 0 0 0 0 0 0 0 0 0 0 0 0 0 0 0 0 0 0 0 0 0 0 0 0 0 0 0 0 0 0 0
0 0 0 0 0 0 0 0 0 0 0 0 0 0 0 0 0 0 0 0 0 0 0 0 0 0 0 0 0 0 0 0 0 0 0 0 0 0 0 0 0 0 0 0 0 0 0 0 0
0 0 0 0 0 0 0 0 0 0 0 0 0 0 0 0 0 0 0 0 0 0 0 0 0 0 0 0 0 0 0 0 0 0 0 0 0 0 0 0 0 0 0 0 0 0 0 0 0
0 0 0 0 0 0 0 0 0 0 0 0 0 0 0 0 0 0 0 0 0 0 0 0 0 0 0 0 0 0 0 0 0 0 0 0 0 0 0 0 0 0 0 0 0 0 0 0 0
Wind_Speed
5 3 3 5 7 6 1 2 5 3 3 1 5 9 8 4 3 3 3 10 13 12 11 11 13 14 14 13 13 12 12 12 13 13 13 14 15 16 17 17 17 17 18 18 18 18 18 18 19
2 2 6 6 6 3 2 2 4 2 4 4 5 7 6 2 2 6 6 11 15 13 11 11 13 14 14 14 13 13 13 12 12 13 13 14 14 15 17 17 17 17 17 17 18 18 18 18 18
1 3 5 5 4 5 5 4 5 2 1 3 4 5 6 5 5 6 8 15 13 11 9 11 13 15 15 14 14 13 13 12 12 13 13 13 14 15 16 17 17 17 17 17 17 17 17 17 18
4 5 6 5 1 4 7 7 6 5 2 3 5 5 2 1 5 7 13 15 14 11 10 12 14 15 15 15 14 14 13 13 13 13 13 13 14 15 16 16 16 16 16 16 16 16 16 16 17
5 5 5 3 1 1 3 7 7 6 5 3 5 5 1 4 3 13 15 14 14 10 9 11 13 14 15 15 14 14 13 13 13 13 13 13 14 15 16 16 16 16 16 16 16 16 16 16 17
5 5 5 1 1 1 3 6 6 5 4 3 6 6 2 2 7 12 13 12 12 12 10 10 12 13 13 14 14 14 14 13 13 13 13 13 14 15 15 15 15 15 15 15 15 15 16 16 17
5 5 4 3 2 2 4 6 9 7 5 6 8 7 1 2 5 8 10 11 11 11 10 8 9 10 12 12 12 12 12 13 13 13 13 12 13 14 14 14 15 15 15 15 15 16 16 17 17
5 5 2 2 3 3 3 4 5 8 5 3 6 9 7 7 6 7 8 10 11 10 10 9 8 7 7 8 11 12 11 11 11 12 11 11 12 13 12 11 14 15 15 15 15 15 16 17 17
5 5 1 2 3 3 3 3 2 3 5 3 2 5 6 10 8 8 7 7 9 10 10 10 10 8 7 7 10 10 11 11 11 10 12 10 6 7 7 9 13 14 14 14 15 15 15 15 16
5 4 5 2 2 5 4 4 6 5 4 2 2 2 5 10 11 11 10 11 13 14 12 11 11 11 9 7 7 5 6 7 6 6 7 5 5 5 7 10 11 12 12 13 14 14 13 10 6
5 6 4 1 1 4 3 3 4 9 5 7 9 8 10 9 11 12 12 11 12 13 12 12 12 12 10 7 7 4 4 4 5 7 6 6 5 4 4 4 5 6 7 5 8 7 5 5 5
4 3 3 3 1 3 3 3 3 6 8 7 10 15 13 14 16 17 16 12 10 11 13 12 12 12 11 9 8 7 6 5 5 6 7 6 5 4 4 3 4 4 3 4 4 4 6 6 6
3 2 2 3 3 2 2 2 3 6 6 2 7 13 15 16 15 14 12 9 9 12 13 13 13 13 12 10 9 9 8 8 8 7 7 8 7 7 6 4 4 4 4 4 5 5 6 6 6
3 2 2 3 2 2 2 1 2 8 4 4 8 14 15 16 16 11 9 11 13 14 14 13 14 14 13 12 10 9 9 8 8 8 9 10 7 7 7 6 5 4 4 4 5 6 6 5 5
3 3 1 2 3 2 1 5 7 7 2 6 8 10 12 14 12 13 15 16 17 14 13 13 14 14 14 14 13 10 10 9 9 9 10 11 9 10 8 7 6 6 5 6 5 6 6 6 6
4 3 2 5 4 3 4 8 8 5 4 8 8 8 10 11 12 14 15 15 14 11 12 14 12 13 15 13 12 9 10 10 10 9 10 12 12 12 9 8 8 7 7 6 7 6 6 5 5
2 2 4 4 3 4 5 8 7 3 1 6 7 8 9 10 11 13 14 15 15 15 13 15 14 15 15 13 11 10 9 11 9 9 10 12 13 13 11 9 8 9 8 7 8 6 6 7 6
6 5 4 5 3 5 5 8 10 7 4 6 8 8 9 11 16 13 14 15 14 14 14 14 15 14 12 9 8 7 9 9 9 10 11 14 13 14 12 9 10 11 9 8 8 8 5 6 7
7 5 3 3 2 5 7 9 11 9 6 9 10 11 12 14 13 9 10 11 11 11 13 15 15 14 11 9 10 10 11 9 9 10 12 14 14 15 13 10 11 11 11 12 12 8 9 6 7
3 2 2 2 1 2 5 10 10 9 10 11 12 13 13 12 10 10 8 8 11 13 14 14 15 14 13 12 10 7 6 5 6 7 10 13 14 15 13 14 12 13 10 12 12 11 8 5 8
5 6 5 3 1 2 3 9 7 7 6 8 10 11 11 12 13 10 8 9 9 11 13 13 15 15 14 11 5 3 3 3 5 8 10 12 14 14 14 15 13 14 13 13 15 16 14 10 9
6 5 5 3 1 4 1 7 8 6 7 9 11 10 11 10 9 7 6 7 9 11 10 11 11 11 10 10 9 10 10 10 10 7 6 8 11 13 14 14 14 14 13 14 15 16 11 12 12
6 2 3 2 2 2 1 4 10 4 7 11 12 11 9 6 5 5 4 5 5 5 5 7 7 8 8 9 11 11 10 9 5 4 6 7 8 11 13 13 14 14 13 14 16 16 14 11 11
8 8 8 6 4 4 6 7 10 6 9 9 9 7 6 3 1 1 1 1 1 1 2 4 5 6 7 8 9 11 11 9 7 7 7 7 6 8 11 12 13 14 13 14 15 17 18 15 13
6 8 3 2 2 8 3 6 12 10 9 8 7 6 3 0 1 1 1 2 2 2 2 3 5 5 5 7 8 9 10 9 11 9 9 8 7 7 10 11 12 12 13 14 14 16 16 17 15
8 11 10 9 7 6 3 10 11 8 6 5 4 1 1 2 1 0 0 1 1 1 1 2 3 3 4 5 6 6 7 6 7 9 8 9 8 8 9 11 12 12 13 13 14 13 15 14 16
9 6 8 7 3 2 8 8 10 5 3 3 1 2 2 2 1 1 0 1 0 0 1 1 2 2 3 4 5 5 6 7 7 7 7 6 6 6 8 10 11 11 12 14 14 13 15 14 15
8 10 6 7 6 6 8 7 7 4 7 5 1 1 2 2 2 1 0 0 0 0 0 0 1 2 3 3 4 4 5 6 6 6 7 7 7 7 8 9 10 11 11 12 13 11 12 15 15
8 6 7 7 7 8 6 10 8 8 6 4 1 0 1 1 1 2 2 1 2 2 1 1 1 2 2 3 4 5 5 5 6 6 8 7 7 7 9 9 10 11 11 11 12 13 11 15 15
8 11 11 9 7 6 5 10 3 5 4 4 3 1 2 3 2 2 3 3 4 3 3 3 3 3 4 3 4 5 5 5 6 7 7 7 7 7 8 8 9 10 10 10 12 13 13 14 15
Wind_Direction
331 358 73 57 54 52 110 198 160 129 88 101 108 101 107 119 154 163 132 138 136 143 145 139 134 128 122 116 111 107 104 102 100 98 98 97 98 99 100 96 94 93 92 91 91 89 86 86 87
342 47 57 60 83 87 243 193 136 130 157 141 96 98 91 79 102 119 125 145 141 143 144 142 137 133 128 122 116 112 108 107 105 103 102 100 100 102 103 100 98 96 95 94 93 90 87 87 89
353 62 82 75 110 170 184 188 155 127 120 107 81 82 124 152 144 150 153 145 139 142 143 144 141 138 133 127 122 118 115 113 110 109 106 103 103 104 106 103 100 99 98 97 95 91 88 89 91
69 52 58 76 152 214 176 182 158 126 77 79 98 77 83 152 178 153 142 143 139 143 144 149 146 142 137 132 128 125 122 119 116 114 110 106 106 107 107 104 102 101 100 99 97 92 89 91 93
63 78 66 52 262 261 160 169 156 132 145 125 108 114 84 322 142 137 143 146 143 144 147 154 149 145 142 138 135 132 128 125 122 119 115 112 111 111 110 107 105 104 103 102 99 93 90 92 95
59 68 84 128 246 181 167 180 141 128 160 152 120 128 174 316 133 144 147 147 146 147 150 156 151 148 146 143 140 137 135 132 129 126 123 120 117 116 114 112 110 109 107 105 100 95 92 92 95
102 101 146 173 188 205 197 165 141 143 161 186 141 126 195 246 169 148 145 144 145 148 152 154 155 153 150 147 144 142 140 138 135 131 126 121 119 117 116 116 116 115 112 109 104 97 94 94 94
120 104 121 178 178 207 192 149 149 145 179 178 129 144 191 209 181 144 138 143 148 153 157 159 159 155 152 150 149 146 144 142 136 129 121 117 116 116 115 116 120 119 116 112 107 100 97 96 94
85 81 164 214 183 192 197 136 105 117 119 90 75 169 196 157 149 138 137 144 157 164 167 166 165 162 157 155 156 151 147 143 135 131 127 118 113 112 115 122 124 123 121 117 111 103 98 94 91
87 140 215 226 188 175 188 167 153 117 112 113 54 36 123 143 157 163 168 170 173 176 177 174 172 170 165 164 156 153 149 146 141 141 136 126 122 121 121 122 125 124 123 120 114 105 96 90 81
130 178 219 210 107 138 161 175 159 134 180 198 186 175 157 164 173 183 185 181 182 179 179 181 178 175 172 167 163 162 154 152 152 153 147 137 127 123 118 119 119 117 114 105 102 91 84 86 87
154 199 177 160 109 117 154 163 183 180 208 209 187 167 168 176 185 191 193 189 180 181 187 184 181 179 179 173 173 171 168 168 169 169 159 150 145 144 143 139 138 130 120 115 103 100 96 92 90
169 161 135 145 122 123 137 183 210 236 234 207 146 160 179 188 196 202 201 192 185 190 191 188 184 184 182 178 179 180 179 179 177 175 173 166 162 162 158 155 152 146 135 131 124 116 110 105 99
179 152 154 173 156 150 174 282 280 249 217 168 159 179 193 197 200 199 201 203 203 202 197 190 190 188 184 185 185 185 184 183 180 182 182 176 170 168 167 165 164 159 150 141 134 129 120 111 108
107 92 8 216 183 192 130 287 245 251 198 197 199 201 206 213 205 204 206 208 208 207 200 196 193 189 189 190 189 187 186 185 187 188 186 182 178 175 173 173 173 168 152 139 129 123 118 117 113
72 77 270 274 191 171 151 260 270 285 210 225 226 222 222 226 219 218 214 214 211 207 202 202 196 193 194 193 191 190 189 189 191 189 188 188 184 179 176 179 179 167 157 152 148 147 134 128 123
60 161 227 279 189 164 181 243 275 327 192 241 243 233 230 238 239 231 221 217 212 208 203 202 200 197 197 195 192 192 190 193 193 192 192 192 189 184 182 184 179 169 165 162 161 158 146 143 133
195 203 226 245 215 159 204 250 274 289 284 261 256 248 239 237 239 230 221 219 215 210 205 203 202 201 195 191 189 192 196 198 196 196 196 192 192 189 186 183 178 173 169 168 167 160 147 143 137
166 165 203 249 211 170 223 255 269 281 277 260 252 246 244 244 247 243 230 220 213 209 204 203 201 200 190 188 194 198 204 201 201 202 199 196 194 191 190 185 180 180 180 178 169 156 150 144 139
189 207 236 296 28 182 256 267 265 260 250 241 242 245 245 249 261 254 241 223 212 209 207 205 203 198 196 199 199 198 195 198 202 200 202 201 198 195 194 190 186 185 182 176 172 160 157 163 173
213 202 208 218 360 342 303 296 284 275 256 263 252 247 247 241 246 249 242 230 218 215 209 207 205 200 198 192 171 155 156 171 196 205 208 205 202 199 198 195 190 189 186 185 182 178 170 175 193
213 208 184 177 136 282 331 290 282 275 289 279 271 260 252 247 243 246 247 241 226 223 212 208 202 198 192 182 181 183 197 209 213 209 207 202 204 204 202 199 196 193 193 190 189 189 188 176 185
188 130 129 118 154 289 279 250 279 285 269 263 260 259 257 253 239 245 252 250 245 226 203 198 190 190 185 186 192 196 210 217 206 195 201 203 204 207 206 202 201 200 199 197 193 194 195 193 190
129 73 55 48 67 271 217 204 272 236 224 245 260 264 264 269 243 238 302 350 349 66 150 163 171 183 181 187 195 202 211 208 203 205 207 209 209 211 210 207 206 205 204 202 199 199 201 204 202
117 100 51 333 321 250 234 224 250 244 239 239 257 273 284 357 107 91 79 54 44 71 119 146 162 181 183 190 201 208 213 209 213 213 212 212 214 216 214 209 211 210 210 207 203 203 205 208 209
176 152 166 192 221 265 258 233 251 257 272 257 250 255 37 37 41 63 112 70 35 69 106 141 169 187 188 198 211 215 215 214 223 219 215 216 220 219 211 212 216 214 211 211 208 208 209 211 215
159 191 163 138 144 269 260 269 297 285 273 260 262 55 36 3 351 328 15 35 17 95 154 183 185 202 213 216 218 222 220 220 226 224 220 223 223 217 212 213 218 220 216 214 211 213 211 212 215
155 147 123 151 178 235 264 251 240 220 213 230 269 24 357 1 7 14 348 302 343 33 26 114 207 224 236 235 231 233 231 229 230 227 227 225 222 215 213 215 219 222 222 219 218 218 213 213 216
144 163 164 163 171 177 247 259 219 205 199 177 174 51 18 11 345 333 336 350 12 22 19 336 289 277 271 258 253 252 249 241 235 234 233 228 224 216 216 216 218 221 223 222 223 225 217 218 220
184 180 162 173 208 196 216 260 238 174 158 144 129 62 39 38 30 22 18 15 13 1 350 334 317 299 284 274 264 259 259 251 245 244 241 231 228 221 217 215 218 221 223 221 223 227 224 223 223